Starlink 30160

operational
NORAD ID: 57441 Int'l Des: 2023-105 Owner: SPXS Country: US Constellation: starlink
LEOCIRCULAR

Über Starlink 30160

Beschreibung wird geladen...

Live-Position

3D-Globus wird geladen...

Nächste Überflüge

Höhenverlauf

Altitude vs Time

uPlot chart will show altitude changes over time

Zweizeiliger Elementsatz

1 57441U 23105M 25349.75523753 .00019420 00000-0 14520-2 0 9992
2 57441 43.0059 357.8099 0000685 311.7398 48.3386 15.02448795132773
Epoch: 15. Dez. 2025 • Age: 18 hours

Aktueller Status

Höhe 558.6 km
Geschwindigkeit 7.59 km/s
Subsatellitenpunkt 21.51°N, 115.98°E
Startdatum 24. Juli 2023
Alter 2.3 years
Typ internet

Technische Details

Klassifizierung Payload
Masse 730.00 kg
Trockenmasse 700.00 kg
Gesamtmasse 730.00 kg
Länge 0.30 m
Durchmesser 4.10 m
Spannweite 29.00 m
Form Box + pan
Hersteller SPXS
Bus-Typ Starlink V2M
Phasenstatus In Orbit
Besitzer/Staat SPXS/US

Große Konstellationen

Loading constellations...